Terug naar catalogus

SL-8 R/B

ActiefPO
NORAD 8646·ROCKET BODY·🇷🇺 Russia

Gelanceerd Feb 3, 1976 vanaf Plesetsk Cosmodrome

Loading…

Volgende Passages (komende 24 uur)

TLE

VersSource: Space-Track

Epoch: Sep 14, 2026, 06:07 UTC

1 08646U 76011B   26257.25525625  .00000034  00000-0  20288-4 0  9994
2 08646  82.9738   5.3674 0004356 244.0847 142.4517 13.74083643536956

Volg SL-8 R/B in realtime met AllMySat

Download on the App Store